FW6482 Weather Reports


Display with metric or nautical units.
time (UTC)temp
F
wind
direction
speed
MPH
gust
MPH
rain 1hr
in
rain 24hr
in
rain mn
in
humidity
%
barometer
mb
20260901220022 59 9 1.0 2.0 0.00 0.01 0.00 83 1018.3
20260901214521 59 9 0.0 2.0 0.00 0.01 0.01 82 1018.3
20260901213020 60 9 1.0 3.0 0.00 0.01 0.01 82 1018.2
20260901211520 60 9 1.0 3.0 0.00 0.01 0.01 82 1018.2
20260901210018 60 9 1.0 2.0 0.00 0.01 0.01 82 1018.2
20260901204518 61 9 0.0 2.0 0.00 0.01 0.01 79 1018.2
20260901203023 62 9 1.0 3.0 0.00 0.01 0.01 78 1018.1
20260901201517 62 9 0.0 0.0 0.00 0.01 0.01 77 1018.1
20260901200016 63 9 0.0 0.0 0.00 0.01 0.01 76 1018.2
20260901194515 63 9 0.0 0.0 0.00 0.01 0.01 74 1018.3
20260901193016 64 9 0.0 0.0 0.00 0.01 0.01 74 1018.1
20260901191527 65 9 0.0 0.0 0.00 0.01 0.01 73 1018.1
20260901190015 65 9 0.0 1.0 0.00 0.01 0.01 71 1018.1
20260901184513 66 9 0.0 1.0 0.00 0.01 0.01 70 1018.0
20260901183011 67 9 0.0 1.0 0.00 0.01 0.01 68 1017.9
20260901181511 68 9 0.0 1.0 0.00 0.01 0.01 67 1017.8
20260901180013 69 9 0.0 0.0 0.00 0.01 0.01 66 1017.7
20260901174509 69 9 0.0 1.0 0.00 0.04 0.01 64 1017.7
20260901173016 70 9 0.0 2.0 0.00 0.04 0.01 63 1017.6
20260901171514 71 9 1.0 4.0 0.00 0.04 0.01 61 1017.5
20260901170008 73 240 1.0 2.0 0.00 0.04 0.01 57 1017.4
20260901164523 74 240 1.0 7.0 0.00 0.13 0.01 55 1017.4
20260901163007 75 242 2.0 5.0 0.00 0.13 0.01 53 1017.5
20260901161509 76 234 2.0 10.0 0.00 0.13 0.01 51 1017.5
20260901160006 76 86 2.0 9.0 0.00 0.13 0.01 52 1017.5
20260901154505 77 246 2.0 8.0 0.00 0.13 0.01 50 1017.4
20260901153002 77 242 3.0 7.0 0.00 0.13 0.01 52 1017.4
20260901151559 76 268 1.0 8.0 0.00 0.13 0.01 52 1017.5
20260901150059 74 238 2.0 8.0 0.00 0.13 0.01 56 1017.5
20260901144559 74 196 2.0 8.0 0.00 0.35 0.01 54 1017.5
20260901143059 75 313 2.0 11.0 0.00 0.35 0.01 54 1017.6
20260901141555 74 229 2.0 9.0 0.00 0.35 0.01 57 1017.6
20260901140057 74 272 1.0 10.0 0.00 0.35 0.01 62 1017.7
20260901134553 73 234 3.0 8.0 0.00 0.35 0.01 61 1017.6
20260901133053 72 212 1.0 3.0 0.00 0.35 0.01 64 1017.7
20260901131552 72 212 2.0 4.0 0.00 0.35 0.01 63 1017.8
20260901130059 73 161 3.0 6.0 0.00 0.35 0.01 60 1017.8
20260901124551 74 17 2.0 8.0 0.00 0.49 0.01 60 1017.6
20260901123050 74 229 2.0 6.0 0.00 0.49 0.01 60 1017.7
20260901121549 74 274 1.0 3.0 0.00 0.49 0.01 60 1017.6
20260901120048 74 284 0.0 3.0 0.00 0.49 0.01 61 1017.8
20260901114622 73 246 0.0 12.0 0.00 0.49 0.01 63 1017.7
20260901113048 73 237 3.0 8.0 0.00 0.49 0.01 63 1017.8
20260901111550 74 194 1.0 5.0 0.00 0.49 0.01 62 1017.7
20260901110045 74 241 2.0 7.0 0.00 0.49 0.01 59 1017.7
20260901104543 73 234 3.0 9.0 0.00 0.50 0.01 60 1017.6
20260901103042 73 246 6.0 12.0 0.00 0.50 0.01 60 1017.6
20260901101538 71 261 4.0 13.0 0.00 0.50 0.01 65 1017.7
20260901100031 70 225 5.0 11.0 0.00 0.50 0.01 69 1017.7
20260901094537 69 229 3.0 9.0 0.00 0.50 0.01 71 1017.7
20260901093042 68 198 2.0 5.0 0.00 0.50 0.01 74 1017.9
20260901091543 68 196 4.0 11.0 0.00 0.50 0.01 72 1017.9
20260901090046 69 213 3.0 6.0 0.00 0.50 0.01 75 1017.8
20260901084542 67 227 2.0 5.0 0.00 0.50 0.01 78 1017.7
20260901083031 64 232 0.0 3.0 0.00 0.50 0.01 85 1017.7
20260901081528 63 232 1.0 4.0 0.00 0.50 0.01 85 1017.7
20260901080025 62 232 1.0 4.0 0.00 0.50 0.01 86 1017.6
20260901074521 61 232 1.0 4.0 0.00 0.50 0.01 88 1017.5
20260901073020 60 240 1.0 3.0 0.00 0.50 0.01 92 1017.6
20260901071513 58 240 0.0 2.0 0.00 0.50 0.01 92 1017.6
20260901070012 58 240 0.0 3.0 0.00 0.50 0.01 92 1017.5
20260901064516 57 240 2.0 5.0 0.00 0.50 0.01 92 1017.6
20260901063006 57 240 1.0 4.0 0.00 0.50 0.01 92 1017.5
20260901061505 57 240 2.0 4.0 0.00 0.50 0.01 92 1017.3
20260901060003 57 240 3.0 7.0 0.00 0.50 0.01 92 1017.2
20260901054501 57 215 4.0 7.0 0.00 0.50 0.01 92 1017.1
20260901053100 57 215 3.0 7.0 0.00 0.50 0.01 93 1016.9
20260901051557 56 225 5.0 9.0 0.00 0.50 0.01 93 1016.8
20260901050055 56 220 4.0 8.0 0.00 0.50 0.01 93 1016.7
20260901044558 56 217 4.0 8.0 0.00 0.50 0.01 93 1016.6
20260901043051 56 211 3.0 7.0 0.00 0.50 0.01 93 1016.5
20260901041548 56 230 4.0 6.0 0.00 0.50 0.01 92 1016.4
20260901040050 56 244 3.0 5.0 0.00 0.50 0.01 92 1016.5
20260901034544 57 243 4.0 8.0 0.00 0.50 0.01 92 1016.3
20260901033056 57 231 3.0 7.0 0.00 0.50 0.01 92 1016.2
20260901031542 57 244 4.0 7.0 0.00 0.50 0.01 92 1016.1
20260901030047 57 242 4.0 8.0 0.00 0.50 0.01 92 1016.1
20260901024541 57 248 3.0 5.0 0.00 0.50 0.01 92 1016.1
20260901023045 57 250 3.0 7.0 0.00 0.50 0.01 92 1016.2
20260901021556 57 250 4.0 8.0 0.00 0.50 0.01 92 1016.0
20260901020038 57 243 4.0 8.0 0.00 0.50 0.01 92 1016.0
20260901014536 57 247 3.0 7.0 0.00 0.50 0.01 92 1015.8
20260901013046 57 248 3.0 7.0 0.00 0.50 0.01 92 1015.7
20260901011540 57 244 3.0 8.0 0.00 0.50 0.01 93 1015.6
20260901010032 57 243 5.0 9.0 0.00 0.50 0.01 93 1015.5
20260901004528 57 254 4.0 9.0 0.00 0.50 0.01 93 1015.5
20260901003037 58 263 5.0 9.0 0.00 0.50 0.01 93 1015.6
20260901001527 58 252 5.0 9.0 0.00 0.50 0.01 93 1015.6
20260901000031 58 242 4.0 7.0 0.00 0.50 0.01 93 1015.6
20260831234523 58 242 3.0 5.0 0.00 0.50 0.01 93 1015.7
20260831233022 58 242 3.0 5.0 0.00 0.50 0.01 93 1015.7
20260831231521 58 242 3.0 4.0 0.01 0.50 0.01 93 1015.7
20260831230021 59 242 3.0 5.0 0.01 0.50 0.01 93 1015.7
20260831224520 59 242 2.0 4.0 0.01 0.50 0.01 93 1015.7
20260831223023 59 242 3.0 11.0 0.00 0.49 0.00 93 1015.7
20260831221518 58 236 5.0 12.0 0.00 0.49 0.00 93 1015.7